Time,TemperatureF,DewpointF,PressureIn,WindDirection,WindDirectionDegrees,WindSpeedMPH,WindSpeedGustMPH,Humidity,HourlyPrecipIn,Conditions,Clouds,dailyrainin,SoftwareType,DateUTC
2013-07-31 00:06:00,65.5,64.0,30.07,WSW,254,0.0,1.0,93,0.00,,,0.00,weatherlink.com 1.10,2013-07-31 04:06:00,
2013-07-31 00:21:00,65.1,63.0,30.07,WSW,255,0.0,0.0,93,0.00,,,0.00,weatherlink.com 1.10,2013-07-31 04:21:00,
2013-07-31 00:36:00,64.7,63.0,30.07,WSW,249,1.0,1.0,93,0.00,,,0.00,weatherlink.com 1.10,2013-07-31 04:36:00,
2013-07-31 00:51:00,65.0,63.0,30.07,WSW,242,0.0,0.0,93,0.00,,,0.00,weatherlink.com 1.10,2013-07-31 04:51:00,
2013-07-31 01:06:00,64.8,63.0,30.07,WNW,285,0.0,1.0,93,0.00,,,0.00,weatherlink.com 1.10,2013-07-31 05:06:00,
2013-07-31 01:21:00,65.5,63.0,30.07,WSW,250,0.0,2.0,92,0.00,,,0.00,weatherlink.com 1.10,2013-07-31 05:21:00,
2013-07-31 01:36:00,66.3,64.0,30.07,WSW,246,1.0,2.0,93,0.00,,,0.00,weatherlink.com 1.10,2013-07-31 05:36:00,
2013-07-31 01:52:00,66.4,64.0,30.07,WSW,253,1.0,3.0,90,0.00,,,0.00,weatherlink.com 1.10,2013-07-31 05:52:00,
2013-07-31 02:07:00,66.3,63.0,30.07,WSW,245,1.0,3.0,89,0.00,,,0.00,weatherlink.com 1.10,2013-07-31 06:07:00,
2013-07-31 02:22:00,65.7,62.0,30.07,WSW,254,0.0,1.0,88,0.00,,,0.00,weatherlink.com 1.10,2013-07-31 06:22:00,
2013-07-31 02:37:00,64.4,61.0,30.07,WSW,254,0.0,0.0,89,0.00,,,0.00,weatherlink.com 1.10,2013-07-31 06:37:00,
2013-07-31 02:52:00,63.7,61.0,30.07,WSW,255,0.0,1.0,91,0.00,,,0.00,weatherlink.com 1.10,2013-07-31 06:52:00,
2013-07-31 03:08:00,63.2,61.0,30.07,WSW,255,0.0,1.0,92,0.00,,,0.00,weatherlink.com 1.10,2013-07-31 07:08:00,
2013-07-31 03:22:00,63.1,61.0,30.07,WSW,255,0.0,0.0,93,0.00,,,0.00,weatherlink.com 1.10,2013-07-31 07:22:00,
2013-07-31 03:37:00,63.2,61.0,30.07,WSW,255,0.0,1.0,93,0.00,,,0.00,weatherlink.com 1.10,2013-07-31 07:37:00,
2013-07-31 03:53:00,63.3,62.0,30.07,WSW,255,0.0,0.0,94,0.00,,,0.00,weatherlink.com 1.10,2013-07-31 07:53:00,
2013-07-31 04:07:00,62.9,61.0,30.07,WSW,255,0.0,1.0,94,0.00,,,0.00,weatherlink.com 1.10,2013-07-31 08:07:00,
2013-07-31 04:22:00,62.6,61.0,30.07,WSW,255,0.0,1.0,94,0.00,,,0.00,weatherlink.com 1.10,2013-07-31 08:22:00,
2013-07-31 04:37:00,62.6,61.0,30.07,WSW,255,0.0,0.0,94,0.00,,,0.00,weatherlink.com 1.10,2013-07-31 08:37:00,
2013-07-31 04:52:00,62.5,61.0,30.08,WSW,255,0.0,0.0,94,0.00,,,0.00,weatherlink.com 1.10,2013-07-31 08:52:00,
2013-07-31 05:07:00,62.1,60.0,30.08,WSW,255,0.0,0.0,94,0.00,,,0.00,weatherlink.com 1.10,2013-07-31 09:07:00,
2013-07-31 05:22:00,-999.0,-99.9,30.09,North,-999,-999.0,-999.0,-999,0.00,,,0.00,weatherlink.com 1.10,2013-07-31 09:22:00,
2013-07-31 05:37:00,-999.0,-99.9,30.09,North,-999,-999.0,-999.0,-999,0.00,,,0.00,weatherlink.com 1.10,2013-07-31 09:37:00,
2013-07-31 05:52:00,-999.0,-99.9,30.09,North,-999,-999.0,-999.0,-999,0.00,,,0.00,weatherlink.com 1.10,2013-07-31 09:52:00,
2013-07-31 06:07:00,-999.0,-99.9,30.09,North,-999,-999.0,-999.0,-999,0.00,,,0.00,weatherlink.com 1.10,2013-07-31 10:07:00,
2013-07-31 06:22:00,-999.0,-99.9,30.10,North,-999,-999.0,-999.0,-999,0.00,,,0.00,weatherlink.com 1.10,2013-07-31 10:22:00,
2013-07-31 06:37:00,-999.0,-99.9,30.10,North,-999,-999.0,-999.0,-999,0.00,,,0.00,weatherlink.com 1.10,2013-07-31 10:37:00,
2013-07-31 06:52:00,-999.0,-99.9,30.10,North,-999,-999.0,-999.0,-999,0.00,,,0.00,weatherlink.com 1.10,2013-07-31 10:52:00,
2013-07-31 07:07:00,-999.0,-99.9,30.11,North,-999,-999.0,-999.0,-999,0.00,,,0.00,weatherlink.com 1.10,2013-07-31 11:07:00,
2013-07-31 07:22:00,66.2,62.0,30.11,WSW,239,0.0,1.0,86,0.00,,,0.00,weatherlink.com 1.10,2013-07-31 11:22:00,
2013-07-31 07:37:00,68.1,63.0,30.11,WSW,242,1.0,2.0,83,0.00,,,0.00,weatherlink.com 1.10,2013-07-31 11:37:00,
2013-07-31 07:53:00,69.7,62.0,30.11,SW,225,0.0,3.0,77,0.00,,,0.00,weatherlink.com 1.10,2013-07-31 11:53:00,
2013-07-31 08:08:00,70.7,63.0,30.11,WSW,249,0.0,3.0,76,0.00,,,0.00,weatherlink.com 1.10,2013-07-31 12:08:00,
2013-07-31 08:23:00,72.2,63.0,30.11,SSE,158,0.0,2.0,72,0.00,,,0.00,weatherlink.com 1.10,2013-07-31 12:23:00,
2013-07-31 08:38:00,73.1,63.0,30.11,ESE,120,1.0,2.0,71,0.00,,,0.00,weatherlink.com 1.10,2013-07-31 12:38:00,
2013-07-31 08:53:00,73.5,63.0,30.11,WSW,249,1.0,3.0,70,0.00,,,0.00,weatherlink.com 1.10,2013-07-31 12:53:00,
2013-07-31 09:08:00,73.0,62.0,30.11,SE,134,0.0,4.0,69,0.00,,,0.00,weatherlink.com 1.10,2013-07-31 13:08:00,
2013-07-31 09:23:00,73.9,62.0,30.10,ENE,70,2.0,2.0,67,0.00,,,0.00,weatherlink.com 1.10,2013-07-31 13:23:00,
2013-07-31 09:38:00,74.8,64.0,30.10,SSW,198,0.0,2.0,69,0.00,,,0.00,weatherlink.com 1.10,2013-07-31 13:38:00,
2013-07-31 09:53:00,75.2,65.0,30.11,South,191,1.0,4.0,70,0.00,,,0.00,weatherlink.com 1.10,2013-07-31 13:53:00,
2013-07-31 10:08:00,75.3,65.0,30.10,SSW,194,0.0,2.0,71,0.00,,,0.00,weatherlink.com 1.10,2013-07-31 14:08:00,
2013-07-31 10:23:00,75.0,65.0,30.10,SSW,208,0.0,3.0,71,0.00,,,0.00,weatherlink.com 1.10,2013-07-31 14:23:00,
2013-07-31 10:38:00,75.2,66.0,30.10,WSW,252,1.0,3.0,72,0.00,,,0.00,weatherlink.com 1.10,2013-07-31 14:38:00,
2013-07-31 10:53:00,75.0,65.0,30.10,SW,225,0.0,4.0,71,0.00,,,0.00,weatherlink.com 1.10,2013-07-31 14:53:00,
2013-07-31 11:08:00,74.9,65.0,30.10,SSW,204,2.0,3.0,70,0.00,,,0.00,weatherlink.com 1.10,2013-07-31 15:08:00,
2013-07-31 11:23:00,73.9,64.0,30.10,SSE,155,2.0,5.0,72,0.00,,,0.00,weatherlink.com 1.10,2013-07-31 15:23:00,
2013-07-31 11:38:00,75.0,66.0,30.09,SSW,207,1.0,4.0,73,0.00,,,0.00,weatherlink.com 1.10,2013-07-31 15:38:00,
2013-07-31 11:53:00,76.0,66.0,30.09,South,172,1.0,3.0,71,0.00,,,0.00,weatherlink.com 1.10,2013-07-31 15:53:00,
2013-07-31 12:08:00,76.3,66.0,30.09,SSW,204,1.0,4.0,71,0.00,,,0.00,weatherlink.com 1.10,2013-07-31 16:08:00,
2013-07-31 12:23:00,76.8,66.0,30.09,South,186,1.0,4.0,70,0.00,,,0.00,weatherlink.com 1.10,2013-07-31 16:23:00,
2013-07-31 12:38:00,76.6,67.0,30.09,SW,229,2.0,3.0,71,0.00,,,0.00,weatherlink.com 1.10,2013-07-31 16:38:00,
2013-07-31 12:53:00,76.5,67.0,30.09,SSE,168,1.0,3.0,72,0.00,,,0.00,weatherlink.com 1.10,2013-07-31 16:53:00,
2013-07-31 13:08:00,76.5,66.0,30.08,SSW,212,2.0,5.0,69,0.00,,,0.00,weatherlink.com 1.10,2013-07-31 17:08:00,
2013-07-31 13:23:00,75.3,66.0,30.08,SSW,205,2.0,4.0,72,0.00,,,0.00,weatherlink.com 1.10,2013-07-31 17:23:00,
2013-07-31 13:38:00,76.6,66.0,30.08,South,184,1.0,3.0,70,0.00,,,0.00,weatherlink.com 1.10,2013-07-31 17:38:00,
2013-07-31 13:53:00,76.1,66.0,30.07,SSW,193,1.0,3.0,71,0.00,,,0.00,weatherlink.com 1.10,2013-07-31 17:53:00,
2013-07-31 14:08:00,75.6,66.0,30.07,SSW,208,1.0,4.0,73,0.00,,,0.00,weatherlink.com 1.10,2013-07-31 18:08:00,
2013-07-31 14:23:00,76.6,66.0,30.07,WSW,243,0.0,3.0,70,0.00,,,0.00,weatherlink.com 1.10,2013-07-31 18:23:00,
2013-07-31 14:38:00,76.4,67.0,30.07,South,186,1.0,3.0,72,0.00,,,0.00,weatherlink.com 1.10,2013-07-31 18:38:00,
2013-07-31 14:53:00,76.3,67.0,30.07,SSW,198,0.0,2.0,73,0.00,,,0.00,weatherlink.com 1.10,2013-07-31 18:53:00,
2013-07-31 15:08:00,76.9,68.0,30.06,SSW,195,1.0,3.0,73,0.00,,,0.00,weatherlink.com 1.10,2013-07-31 19:08:00,
2013-07-31 15:23:00,77.8,67.0,30.07,South,173,2.0,3.0,70,0.00,,,0.00,weatherlink.com 1.10,2013-07-31 19:23:00,
2013-07-31 15:38:00,77.7,66.0,30.06,SW,219,1.0,3.0,68,0.00,,,0.00,weatherlink.com 1.10,2013-07-31 19:38:00,
2013-07-31 15:53:00,77.8,67.0,30.06,SW,214,1.0,3.0,70,0.00,,,0.00,weatherlink.com 1.10,2013-07-31 19:53:00,
2013-07-31 16:08:00,76.6,67.0,30.05,SW,222,2.0,4.0,72,0.00,,,0.00,weatherlink.com 1.10,2013-07-31 20:08:00,
2013-07-31 16:23:00,77.0,68.0,30.05,SSW,205,0.0,3.0,74,0.00,,,0.00,weatherlink.com 1.10,2013-07-31 20:23:00,
2013-07-31 16:53:00,76.6,68.0,30.05,SSE,165,1.0,3.0,75,0.00,,,0.00,weatherlink.com 1.10,2013-07-31 20:53:00,
2013-07-31 17:08:00,75.2,68.0,30.05,SW,224,1.0,3.0,77,0.00,,,0.00,weatherlink.com 1.10,2013-07-31 21:08:00,
2013-07-31 17:23:00,74.1,68.0,30.04,SSW,193,0.0,2.0,80,0.00,,,0.00,weatherlink.com 1.10,2013-07-31 21:23:00,
2013-07-31 17:38:00,74.1,68.0,30.05,SW,214,0.0,1.0,80,0.00,,,0.00,weatherlink.com 1.10,2013-07-31 21:38:00,
2013-07-31 17:53:00,73.6,67.0,30.04,SW,214,0.0,1.0,80,0.00,,,0.00,weatherlink.com 1.10,2013-07-31 21:53:00,
2013-07-31 18:08:00,73.5,68.0,30.04,South,181,1.0,1.0,82,0.00,,,0.00,weatherlink.com 1.10,2013-07-31 22:08:00,
2013-07-31 18:23:00,72.9,66.0,30.04,SSW,210,0.0,3.0,80,0.00,,,0.00,weatherlink.com 1.10,2013-07-31 22:23:00,
2013-07-31 18:38:00,73.0,67.0,30.04,SSW,205,0.0,2.0,80,0.00,,,0.00,weatherlink.com 1.10,2013-07-31 22:38:00,
2013-07-31 18:54:00,72.8,67.0,30.04,SW,226,0.0,1.0,81,0.00,,,0.00,weatherlink.com 1.10,2013-07-31 22:54:00,
2013-07-31 19:08:00,71.9,66.0,30.04,SW,219,0.0,2.0,82,0.00,,,0.00,weatherlink.com 1.10,2013-07-31 23:08:00,
2013-07-31 19:23:00,71.3,67.0,30.03,South,191,0.0,2.0,85,0.00,,,0.00,weatherlink.com 1.10,2013-07-31 23:23:00,
2013-07-31 19:39:00,70.8,67.0,30.03,SW,225,0.0,1.0,87,0.00,,,0.00,weatherlink.com 1.10,2013-07-31 23:39:00,
2013-07-31 19:54:00,70.2,67.0,30.03,SW,219,1.0,1.0,88,0.00,,,0.00,weatherlink.com 1.10,2013-07-31 23:54:00,
2013-07-31 20:09:00,69.7,66.0,30.03,SW,214,0.0,1.0,88,0.00,,,0.00,weatherlink.com 1.10,2013-08-01 00:09:00,
2013-07-31 20:24:00,69.3,66.0,30.03,SSW,201,0.0,1.0,89,0.00,,,0.00,weatherlink.com 1.10,2013-08-01 00:24:00,
2013-07-31 20:39:00,68.9,66.0,30.03,SSW,213,0.0,1.0,89,0.00,,,0.00,weatherlink.com 1.10,2013-08-01 00:39:00,
2013-07-31 20:54:00,68.9,66.0,30.03,SSW,199,0.0,1.0,89,0.00,,,0.00,weatherlink.com 1.10,2013-08-01 00:54:00,
2013-07-31 21:09:00,68.8,66.0,30.04,SSW,198,0.0,1.0,90,0.00,,,0.00,weatherlink.com 1.10,2013-08-01 01:09:00,
2013-07-31 21:24:00,68.6,66.0,30.04,SSW,197,0.0,1.0,90,0.00,,,0.00,weatherlink.com 1.10,2013-08-01 01:24:00,
2013-07-31 21:39:00,68.1,65.0,30.03,SSW,197,0.0,0.0,91,0.00,,,0.00,weatherlink.com 1.10,2013-08-01 01:39:00,
2013-07-31 21:54:00,68.0,66.0,30.03,SSW,197,0.0,1.0,92,0.00,,,0.00,weatherlink.com 1.10,2013-08-01 01:54:00,
2013-07-31 22:09:00,67.6,66.0,30.03,SSW,197,0.0,0.0,93,0.00,,,0.00,weatherlink.com 1.10,2013-08-01 02:09:00,
2013-07-31 22:24:00,67.7,66.0,30.03,SSW,197,0.0,1.0,94,0.00,,,0.00,weatherlink.com 1.10,2013-08-01 02:24:00,
2013-07-31 22:39:00,67.6,66.0,30.03,SSW,197,0.0,1.0,94,0.00,,,0.00,weatherlink.com 1.10,2013-08-01 02:39:00,
2013-07-31 22:54:00,67.4,66.0,30.03,SSW,197,0.0,1.0,95,0.00,,,0.00,weatherlink.com 1.10,2013-08-01 02:54:00,
2013-07-31 23:09:00,67.2,66.0,30.03,SSW,197,0.0,1.0,95,0.00,,,0.00,weatherlink.com 1.10,2013-08-01 03:09:00,
2013-07-31 23:24:00,67.5,66.0,30.03,SSW,197,0.0,0.0,95,0.00,,,0.00,weatherlink.com 1.10,2013-08-01 03:24:00,
2013-07-31 23:39:00,67.0,66.0,30.03,SSW,197,0.0,0.0,95,0.00,,,0.00,weatherlink.com 1.10,2013-08-01 03:39:00,
2013-07-31 23:54:00,67.1,66.0,30.03,SSW,197,0.0,0.0,96,0.00,,,0.00,weatherlink.com 1.10,2013-08-01 03:54:00,